| time (UTC) | temp F | wind direction | speed MPH | gust MPH | rain 1hr in | rain 24hr in | rain mn in | humidity % | barometer mb |
| 20260903213906 | 59 | 337 | 9.0 | 23.0 | 0.00 | 0.00 | 0.00 | 88 | 1004.3 |
| 20260903213405 | 59 | 328 | 10.0 | 24.0 | 0.00 | 0.00 | 0.00 | 88 | 1004.3 |
| 20260903212906 | 58 | 314 | 13.0 | 28.0 | 0.00 | 0.00 | 0.00 | 89 | 1004.3 |
| 20260903212406 | 58 | 315 | 12.0 | 28.0 | 0.00 | 0.00 | 0.00 | 89 | 1004.3 |
| 20260903211405 | 58 | 342 | 9.0 | 24.0 | 0.00 | 0.00 | 0.00 | 90 | 1004.2 |
| 20260903210906 | 58 | 302 | 10.0 | 23.0 | 0.00 | 0.00 | 0.00 | 90 | 1004.1 |
| 20260903205906 | 57 | 315 | 11.0 | 24.0 | 0.00 | 0.00 | 0.00 | 91 | 1004.3 |
| 20260903205406 | 57 | 318 | 10.0 | 23.0 | 0.00 | 0.00 | 0.00 | 90 | 1004.2 |
| 20260903204906 | 57 | 309 | 7.0 | 20.0 | 0.00 | 0.00 | 0.00 | 91 | 1004.3 |
| 20260903204406 | 57 | 289 | 12.0 | 22.0 | 0.00 | 0.00 | 0.00 | 91 | 1004.2 |
| 20260903203406 | 57 | 319 | 13.0 | 24.0 | 0.00 | 0.00 | 0.00 | 91 | 1004.2 |
| 20260903202906 | 57 | 327 | 12.0 | 29.0 | 0.00 | 0.00 | 0.00 | 91 | 1004.2 |
| 20260903202405 | 57 | 327 | 11.0 | 22.0 | 0.00 | 0.00 | 0.00 | 91 | 1004.2 |
| 20260903201905 | 58 | 334 | 14.0 | 25.0 | 0.00 | 0.00 | 0.00 | 91 | 1004.1 |
| 20260903201406 | 57 | 328 | 18.0 | 35.0 | 0.00 | 0.00 | 0.00 | 91 | 1004.0 |
| 20260903200906 | 57 | 333 | 19.0 | 40.0 | 0.00 | 0.00 | 0.00 | 91 | 1003.9 |
| 20260903200406 | 58 | 351 | 18.0 | 35.0 | 0.00 | 0.00 | 0.00 | 91 | 1004.0 |
| 20260903195905 | 58 | 339 | 14.0 | 25.0 | 0.00 | 0.00 | 0.00 | 91 | 1003.9 |
| 20260903194905 | 58 | 341 | 17.0 | 30.0 | 0.00 | 0.00 | 0.00 | 91 | 1003.9 |
| 20260903194405 | 58 | 322 | 18.0 | 31.0 | 0.00 | 0.00 | 0.00 | 91 | 1004.0 |
| 20260903193906 | 58 | 348 | 20.0 | 32.0 | 0.00 | 0.00 | 0.00 | 91 | 1004.1 |
| 20260903193406 | 58 | 331 | 21.0 | 37.0 | 0.00 | 0.00 | 0.00 | 91 | 1003.9 |
| 20260903192906 | 58 | 349 | 21.0 | 40.0 | 0.00 | 0.00 | 0.00 | 91 | 1003.7 |
| 20260903192405 | 58 | 341 | 18.0 | 32.0 | 0.00 | 0.00 | 0.00 | 91 | 1003.6 |
| 20260903191906 | 58 | 338 | 21.0 | 38.0 | 0.00 | 0.00 | 0.00 | 91 | 1003.6 |
| 20260903191406 | 58 | 351 | 22.0 | 32.0 | 0.00 | 0.00 | 0.00 | 91 | 1003.6 |
| 20260903190905 | 58 | 345 | 18.0 | 33.0 | 0.00 | 0.00 | 0.00 | 91 | 1003.5 |
| 20260903185905 | 58 | 351 | 17.0 | 29.0 | 0.00 | 0.00 | 0.00 | 91 | 1003.6 |
| 20260903185406 | 58 | 343 | 13.0 | 26.0 | 0.00 | 0.00 | 0.00 | 91 | 1003.9 |
| 20260903184906 | 58 | 347 | 15.0 | 24.0 | 0.00 | 0.00 | 0.00 | 91 | 1004.1 |
| 20260903184406 | 58 | 346 | 14.0 | 29.0 | 0.00 | 0.00 | 0.00 | 91 | 1004.4 |
| 20260903183406 | 58 | 342 | 16.0 | 32.0 | 0.00 | 0.00 | 0.00 | 91 | 1004.7 |
| 20260903182906 | 58 | 342 | 17.0 | 28.0 | 0.00 | 0.00 | 0.00 | 91 | 1004.7 |
| 20260903182405 | 58 | 346 | 15.0 | 25.0 | 0.00 | 0.00 | 0.00 | 91 | 1004.9 |
| 20260903181905 | 58 | 353 | 12.0 | 23.0 | 0.00 | 0.00 | 0.00 | 91 | 1005.1 |
| 20260903181406 | 58 | 333 | 16.0 | 29.0 | 0.00 | 0.00 | 0.00 | 91 | 1005.4 |
| 20260903180905 | 58 | 340 | 14.0 | 26.0 | 0.00 | 0.00 | 0.00 | 91 | 1005.4 |
| 20260903180405 | 58 | 348 | 10.0 | 29.0 | 0.00 | 0.00 | 0.00 | 91 | 1005.5 |
| 20260903175906 | 58 | 346 | 14.0 | 28.0 | 0.00 | 0.00 | 0.00 | 91 | 1005.7 |
| 20260903174406 | 58 | 347 | 17.0 | 35.0 | 0.00 | 0.00 | 0.00 | 91 | 1005.8 |
| 20260903173405 | 58 | 358 | 13.0 | 28.0 | 0.00 | 0.00 | 0.00 | 91 | 1005.7 |
| 20260903172906 | 58 | 349 | 15.0 | 30.0 | 0.00 | 0.00 | 0.00 | 91 | 1005.6 |
| 20260903172405 | 58 | 329 | 18.0 | 31.0 | 0.00 | 0.00 | 0.00 | 91 | 1005.6 |
| 20260903171906 | 58 | 333 | 18.0 | 32.0 | 0.00 | 0.00 | 0.00 | 91 | 1005.7 |
| 20260903171405 | 58 | 336 | 21.0 | 37.0 | 0.00 | 0.00 | 0.00 | 91 | 1005.7 |
| 20260903170906 | 58 | 356 | 17.0 | 26.0 | 0.00 | 0.00 | 0.00 | 91 | 1005.9 |
| 20260903170406 | 58 | 338 | 14.0 | 32.0 | 0.00 | 0.00 | 0.00 | 91 | 1006.1 |
| 20260903165905 | 58 | 348 | 18.0 | 29.0 | 0.00 | 0.00 | 0.00 | 91 | 1006.3 |
| 20260903165406 | 58 | 334 | 17.0 | 33.0 | 0.00 | 0.00 | 0.00 | 91 | 1006.2 |
| 20260903164905 | 58 | 345 | 16.0 | 31.0 | 0.00 | 0.00 | 0.00 | 91 | 1006.2 |
| 20260903164405 | 58 | 339 | 17.0 | 31.0 | 0.00 | 0.00 | 0.00 | 91 | 1006.2 |
| 20260903163906 | 58 | 353 | 16.0 | 32.0 | 0.00 | 0.00 | 0.00 | 91 | 1006.1 |
| 20260903163406 | 58 | 334 | 15.0 | 29.0 | 0.00 | 0.00 | 0.00 | 91 | 1006.1 |
| 20260903162906 | 58 | 356 | 18.0 | 33.0 | 0.00 | 0.00 | 0.00 | 91 | 1006.1 |
| 20260903162406 | 58 | 342 | 18.0 | 33.0 | 0.00 | 0.00 | 0.00 | 91 | 1006.1 |
| 20260903160905 | 58 | 340 | 17.0 | 32.0 | 0.00 | 0.00 | 0.00 | 91 | 1006.3 |
| 20260903160405 | 58 | 346 | 17.0 | 31.0 | 0.00 | 0.00 | 0.00 | 91 | 1006.5 |
| 20260903155406 | 58 | 334 | 17.0 | 26.0 | 0.00 | 0.00 | 0.00 | 91 | 1006.8 |
| 20260903154905 | 58 | 345 | 17.0 | 31.0 | 0.00 | 0.00 | 0.00 | 91 | 1006.8 |
| 20260903154406 | 58 | 350 | 17.0 | 26.0 | 0.00 | 0.00 | 0.00 | 91 | 1007.0 |
| 20260903153905 | 58 | 345 | 17.0 | 33.0 | 0.00 | 0.00 | 0.00 | 91 | 1007.2 |
| 20260903153406 | 58 | 347 | 14.0 | 22.0 | 0.00 | 0.00 | 0.00 | 91 | 1007.3 |
| 20260903152905 | 58 | 347 | 14.0 | 30.0 | 0.00 | 0.00 | 0.00 | 91 | 1007.4 |
| 20260903152405 | 58 | 342 | 15.0 | 26.0 | 0.00 | 0.00 | 0.00 | 91 | 1007.5 |
| 20260903151906 | 58 | 346 | 16.0 | 25.0 | 0.00 | 0.00 | 0.00 | 91 | 1007.6 |
| 20260903151405 | 58 | 336 | 12.0 | 24.0 | 0.00 | 0.00 | 0.00 | 91 | 1007.7 |
| 20260903150406 | 58 | 331 | 12.0 | 23.0 | 0.00 | 0.00 | 0.00 | 91 | 1008.0 |
| 20260903145905 | 58 | 342 | 14.0 | 22.0 | 0.00 | 0.00 | 0.00 | 91 | 1008.2 |
| 20260903144905 | 58 | 346 | 14.0 | 26.0 | 0.00 | 0.00 | 0.00 | 91 | 1008.3 |
| 20260903144406 | 58 | 336 | 12.0 | 23.0 | 0.00 | 0.00 | 0.00 | 91 | 1008.4 |
| 20260903143908 | 58 | 351 | 13.0 | 21.0 | 0.00 | 0.00 | 0.00 | 91 | 1008.6 |
| 20260903143405 | 58 | 333 | 11.0 | 25.0 | 0.00 | 0.00 | 0.00 | 91 | 1008.7 |
| 20260903142905 | 58 | 338 | 14.0 | 29.0 | 0.00 | 0.00 | 0.00 | 91 | 1008.8 |
| 20260903142405 | 58 | 342 | 13.0 | 23.0 | 0.00 | 0.00 | 0.00 | 91 | 1008.9 |
| 20260903141906 | 58 | 344 | 16.0 | 24.0 | 0.00 | 0.00 | 0.00 | 91 | 1009.0 |
| 20260903141405 | 58 | 350 | 14.0 | 28.0 | 0.00 | 0.00 | 0.00 | 91 | 1009.1 |
| 20260903140906 | 58 | 344 | 12.0 | 24.0 | 0.00 | 0.00 | 0.00 | 91 | 1009.2 |
| 20260903135905 | 58 | 343 | 12.0 | 23.0 | 0.00 | 0.00 | 0.00 | 91 | 1009.4 |
| 20260903134405 | 58 | 347 | 11.0 | 24.0 | 0.00 | 0.00 | 0.00 | 91 | 1009.4 |
| 20260903133906 | 58 | 353 | 12.0 | 25.0 | 0.00 | 0.00 | 0.00 | 91 | 1009.5 |
| 20260903133406 | 58 | 345 | 14.0 | 26.0 | 0.00 | 0.00 | 0.00 | 91 | 1009.5 |
| 20260903132905 | 58 | 350 | 16.0 | 26.0 | 0.00 | 0.00 | 0.00 | 91 | 1009.3 |
| 20260903131905 | 58 | 331 | 10.0 | 31.0 | 0.00 | 0.00 | 0.00 | 91 | 1009.4 |
| 20260903131406 | 58 | 332 | 13.0 | 24.0 | 0.00 | 0.00 | 0.00 | 91 | 1009.5 |
| 20260903130906 | 58 | 338 | 12.0 | 22.0 | 0.00 | 0.00 | 0.00 | 91 | 1009.6 |
| 20260903130405 | 58 | 344 | 10.0 | 20.0 | 0.00 | 0.00 | 0.00 | 91 | 1009.6 |
| 20260903125906 | 58 | 350 | 10.0 | 20.0 | 0.00 | 0.00 | 0.00 | 91 | 1009.5 |
| 20260903124405 | 58 | 2 | 13.0 | 22.0 | 0.00 | 0.00 | 0.00 | 91 | 1009.6 |
| 20260903123906 | 58 | 355 | 14.0 | 29.0 | 0.00 | 0.00 | 0.00 | 91 | 1009.6 |
| 20260903123406 | 58 | 343 | 15.0 | 23.0 | 0.00 | 0.00 | 0.00 | 91 | 1009.7 |
| 20260903121910 | 58 | 349 | 11.0 | 21.0 | 0.00 | 0.00 | 0.00 | 91 | 1009.7 |
| 20260903121406 | 58 | 349 | 14.0 | 20.0 | 0.00 | 0.00 | 0.00 | 91 | 1009.8 |
| 20260903120406 | 58 | 358 | 13.0 | 21.0 | 0.00 | 0.00 | 0.00 | 91 | 1010.0 |
| 20260903115905 | 58 | 358 | 11.0 | 21.0 | 0.00 | 0.00 | 0.00 | 91 | 1010.1 |
| 20260903115407 | 58 | 353 | 9.0 | 16.0 | 0.00 | 0.00 | 0.00 | 91 | 1010.1 |
| 20260903114405 | 58 | 352 | 12.0 | 22.0 | 0.00 | 0.00 | 0.00 | 91 | 1010.3 |
| 20260903112905 | 57 | 348 | 6.0 | 14.0 | 0.00 | 0.00 | 0.00 | 91 | 1010.5 |
| 20260903112406 | 58 | 350 | 8.0 | 20.0 | 0.00 | 0.00 | 0.00 | 91 | 1010.7 |
| 20260903111906 | 58 | 347 | 12.0 | 20.0 | 0.00 | 0.00 | 0.00 | 91 | 1010.8 |
| 20260903111406 | 58 | 345 | 13.0 | 23.0 | 0.00 | 0.00 | 0.00 | 91 | 1010.9 |
| 20260903110906 | 58 | 351 | 14.0 | 24.0 | 0.00 | 0.00 | 0.00 | 91 | 1010.9 |
| 20260903110407 | 58 | 353 | 13.0 | 26.0 | 0.00 | 0.00 | 0.00 | 91 | 1011.0 |
| 20260903104405 | 58 | 339 | 9.0 | 16.0 | 0.00 | 0.00 | 0.00 | 91 | 1011.3 |
| 20260903103905 | 58 | 345 | 6.0 | 17.0 | 0.00 | 0.00 | 0.00 | 91 | 1011.3 |
| 20260903103406 | 58 | 344 | 8.0 | 15.0 | 0.00 | 0.00 | 0.00 | 91 | 1011.4 |
| 20260903102905 | 58 | 335 | 10.0 | 17.0 | 0.00 | 0.00 | 0.00 | 91 | 1011.4 |
| 20260903102406 | 58 | 341 | 6.0 | 16.0 | 0.00 | 0.00 | 0.00 | 91 | 1011.6 |
| 20260903101906 | 58 | 334 | 10.0 | 15.0 | 0.00 | 0.00 | 0.00 | 91 | 1011.6 |
| 20260903101405 | 58 | 346 | 9.0 | 16.0 | 0.00 | 0.00 | 0.00 | 91 | 1011.6 |
| 20260903100906 | 58 | 347 | 7.0 | 15.0 | 0.00 | 0.00 | 0.00 | 91 | 1011.6 |
| 20260903100405 | 58 | 347 | 9.0 | 17.0 | 0.00 | 0.00 | 0.00 | 91 | 1011.7 |
| 20260903095905 | 58 | 341 | 7.0 | 14.0 | 0.00 | 0.00 | 0.00 | 91 | 1011.8 |
| 20260903095405 | 58 | 325 | 7.0 | 13.0 | 0.00 | 0.00 | 0.00 | 91 | 1011.8 |
| 20260903094906 | 58 | 328 | 9.0 | 12.0 | 0.00 | 0.00 | 0.00 | 91 | 1011.8 |
| 20260903094405 | 58 | 329 | 5.0 | 12.0 | 0.00 | 0.00 | 0.00 | 91 | 1011.8 |
| 20260903093905 | 58 | 345 | 6.0 | 12.0 | 0.00 | 0.00 | 0.00 | 91 | 1011.7 |
| 20260903093406 | 58 | 337 | 7.0 | 14.0 | 0.00 | 0.00 | 0.00 | 91 | 1011.7 |
| 20260903092905 | 58 | 344 | 5.0 | 12.0 | 0.00 | 0.00 | 0.00 | 91 | 1011.6 |
| 20260903092406 | 58 | 341 | 6.0 | 12.0 | 0.00 | 0.00 | 0.00 | 91 | 1011.7 |
| 20260903091906 | 58 | 340 | 6.0 | 20.0 | 0.00 | 0.00 | 0.00 | 91 | 1011.7 |
| 20260903091406 | 58 | 353 | 7.0 | 16.0 | 0.00 | 0.00 | 0.00 | 91 | 1011.8 |
| 20260903090905 | 58 | 342 | 7.0 | 16.0 | 0.00 | 0.00 | 0.00 | 91 | 1011.8 |
| 20260903090406 | 58 | 341 | 9.0 | 15.0 | 0.00 | 0.00 | 0.00 | 91 | 1011.7 |
| 20260903085906 | 58 | 350 | 10.0 | 16.0 | 0.00 | 0.00 | 0.00 | 91 | 1011.8 |
| 20260903084906 | 58 | 337 | 9.0 | 14.0 | 0.00 | 0.00 | 0.00 | 90 | 1011.9 |
| 20260903084410 | 58 | 353 | 7.0 | 17.0 | 0.00 | 0.00 | 0.00 | 91 | 1011.9 |
| 20260903083905 | 58 | 343 | 5.0 | 13.0 | 0.00 | 0.00 | 0.00 | 90 | 1011.9 |
| 20260903082910 | 58 | 341 | 6.0 | 15.0 | 0.00 | 0.00 | 0.00 | 90 | 1012.0 |
| 20260903082406 | 58 | 338 | 5.0 | 13.0 | 0.00 | 0.00 | 0.00 | 90 | 1012.1 |
| 20260903081406 | 58 | 329 | 5.0 | 12.0 | 0.00 | 0.00 | 0.00 | 90 | 1012.1 |
| 20260903080905 | 58 | 355 | 3.0 | 13.0 | 0.00 | 0.00 | 0.00 | 90 | 1012.2 |
| 20260903075905 | 58 | 331 | 5.0 | 12.0 | 0.00 | 0.00 | 0.00 | 90 | 1012.2 |
| 20260903075405 | 58 | 349 | 7.0 | 14.0 | 0.00 | 0.00 | 0.00 | 90 | 1012.2 |
| 20260903074906 | 58 | 340 | 6.0 | 13.0 | 0.00 | 0.00 | 0.00 | 90 | 1012.1 |
| 20260903074406 | 58 | 332 | 8.0 | 14.0 | 0.00 | 0.00 | 0.00 | 90 | 1012.2 |
| 20260903073905 | 58 | 352 | 9.0 | 15.0 | 0.00 | 0.00 | 0.00 | 90 | 1012.2 |
| 20260903073405 | 58 | 334 | 10.0 | 16.0 | 0.00 | 0.00 | 0.00 | 90 | 1012.2 |
| 20260903072906 | 58 | 331 | 6.0 | 13.0 | 0.00 | 0.00 | 0.00 | 90 | 1012.2 |
| 20260903072406 | 58 | 329 | 7.0 | 18.0 | 0.00 | 0.00 | 0.00 | 90 | 1012.2 |
| 20260903071905 | 58 | 336 | 8.0 | 16.0 | 0.00 | 0.00 | 0.00 | 90 | 1012.2 |
| 20260903071406 | 58 | 342 | 7.0 | 16.0 | 0.00 | 0.00 | 0.00 | 90 | 1012.2 |
| 20260903070905 | 58 | 333 | 7.0 | 13.0 | 0.00 | 0.00 | 0.00 | 90 | 1012.2 |
| 20260903070405 | 58 | 344 | 4.0 | 12.0 | 0.00 | 0.00 | 0.00 | 90 | 1012.2 |
| 20260903065905 | 58 | 331 | 6.0 | 12.0 | 0.00 | 0.00 | 0.00 | 89 | 1012.2 |
| 20260903065406 | 58 | 330 | 5.0 | 9.0 | 0.00 | 0.00 | 0.00 | 89 | 1012.2 |
| 20260903064906 | 58 | 342 | 5.0 | 9.0 | 0.00 | 0.00 | 0.00 | 89 | 1012.1 |
| 20260903064406 | 57 | 348 | 3.0 | 9.0 | 0.00 | 0.00 | 0.00 | 89 | 1012.1 |
| 20260903063906 | 57 | 352 | 3.0 | 9.0 | 0.00 | 0.00 | 0.00 | 89 | 1012.0 |
| 20260903062905 | 57 | 340 | 3.0 | 9.0 | 0.00 | 0.00 | 0.00 | 89 | 1012.1 |
| 20260903062406 | 57 | 340 | 3.0 | 8.0 | 0.00 | 0.00 | 0.00 | 89 | 1012.1 |
| 20260903060905 | 57 | 322 | 2.0 | 9.0 | 0.00 | 0.00 | 0.00 | 88 | 1012.2 |
| 20260903060405 | 57 | 357 | 3.0 | 9.0 | 0.00 | 0.00 | 0.00 | 88 | 1012.2 |
| 20260903055409 | 57 | 354 | 4.0 | 10.0 | 0.00 | 0.00 | 0.00 | 88 | 1012.3 |
| 20260903054907 | 57 | 348 | 5.0 | 9.0 | 0.00 | 0.00 | 0.00 | 88 | 1012.3 |
| 20260903054406 | 58 | 312 | 5.0 | 12.0 | 0.00 | 0.00 | 0.00 | 88 | 1012.2 |
| 20260903053405 | 58 | 333 | 3.0 | 9.0 | 0.00 | 0.00 | 0.00 | 88 | 1012.3 |
| 20260903052905 | 58 | 350 | 3.0 | 6.0 | 0.00 | 0.00 | 0.00 | 88 | 1012.3 |
| 20260903052405 | 58 | 347 | 3.0 | 8.0 | 0.00 | 0.00 | 0.00 | 87 | 1012.4 |
| 20260903051905 | 58 | 334 | 2.0 | 6.0 | 0.00 | 0.00 | 0.00 | 87 | 1012.4 |
| 20260903051405 | 58 | 334 | 3.0 | 10.0 | 0.00 | 0.00 | 0.00 | 87 | 1012.3 |
| 20260903050905 | 58 | 350 | 5.0 | 9.0 | 0.00 | 0.00 | 0.00 | 87 | 1012.4 |
| 20260903050405 | 58 | 343 | 2.0 | 9.0 | 0.00 | 0.00 | 0.00 | 87 | 1012.4 |
| 20260903045906 | 58 | 305 | 4.0 | 10.0 | 0.00 | 0.00 | 0.00 | 87 | 1012.5 |
| 20260903045405 | 58 | 342 | 4.0 | 12.0 | 0.00 | 0.00 | 0.00 | 87 | 1012.5 |
| 20260903044905 | 58 | 345 | 6.0 | 15.0 | 0.00 | 0.00 | 0.00 | 87 | 1012.6 |
| 20260903044405 | 58 | 326 | 4.0 | 12.0 | 0.00 | 0.00 | 0.00 | 87 | 1012.6 |
| 20260903043906 | 58 | 331 | 5.0 | 12.0 | 0.00 | 0.00 | 0.00 | 87 | 1012.6 |
| 20260903043405 | 58 | 339 | 5.0 | 12.0 | 0.00 | 0.00 | 0.00 | 86 | 1012.6 |
| 20260903042906 | 58 | 350 | 5.0 | 10.0 | 0.00 | 0.00 | 0.00 | 86 | 1012.6 |
| 20260903042405 | 59 | 341 | 3.0 | 10.0 | 0.00 | 0.00 | 0.00 | 86 | 1012.7 |
| 20260903041406 | 59 | 352 | 6.0 | 12.0 | 0.00 | 0.00 | 0.00 | 85 | 1012.6 |
| 20260903040905 | 59 | 336 | 6.0 | 12.0 | 0.00 | 0.00 | 0.00 | 84 | 1012.7 |
| 20260903040406 | 60 | 349 | 5.0 | 12.0 | 0.00 | 0.00 | 0.00 | 84 | 1012.8 |
| 20260903035406 | 60 | 322 | 5.0 | 12.0 | 0.00 | 0.00 | 0.00 | 84 | 1012.8 |
| 20260903034905 | 60 | 325 | 5.0 | 10.0 | 0.00 | 0.00 | 0.00 | 84 | 1012.8 |
| 20260903033905 | 60 | 344 | 8.0 | 12.0 | 0.00 | 0.00 | 0.00 | 84 | 1013.0 |
| 20260903033405 | 60 | 346 | 5.0 | 13.0 | 0.00 | 0.00 | 0.00 | 85 | 1013.0 |
| 20260903032905 | 60 | 333 | 5.0 | 13.0 | 0.00 | 0.00 | 0.00 | 86 | 1013.0 |
| 20260903032405 | 59 | 350 | 6.0 | 13.0 | 0.00 | 0.00 | 0.00 | 85 | 1013.1 |
| 20260903031905 | 59 | 342 | 7.0 | 13.0 | 0.00 | 0.00 | 0.00 | 86 | 1013.1 |
| 20260903031405 | 59 | 332 | 5.0 | 13.0 | 0.00 | 0.00 | 0.00 | 85 | 1013.1 |
| 20260903030906 | 59 | 352 | 5.0 | 12.0 | 0.00 | 0.00 | 0.00 | 85 | 1013.2 |
| 20260903030405 | 59 | 338 | 5.0 | 10.0 | 0.00 | 0.00 | 0.00 | 85 | 1013.2 |
| 20260903025906 | 59 | 331 | 3.0 | 8.0 | 0.00 | 0.00 | 0.00 | 85 | 1013.2 |
| 20260903024905 | 60 | 340 | 6.0 | 12.0 | 0.00 | 0.00 | 0.00 | 83 | 1013.3 |
| 20260903024406 | 60 | 345 | 4.0 | 8.0 | 0.00 | 0.00 | 0.00 | 83 | 1013.4 |
| 20260903023905 | 61 | 340 | 4.0 | 10.0 | 0.00 | 0.00 | 0.00 | 82 | 1013.4 |
| 20260903023405 | 62 | 348 | 4.0 | 12.0 | 0.00 | 0.00 | 0.00 | 81 | 1013.4 |
| 20260903022906 | 63 | 341 | 6.0 | 13.0 | 0.00 | 0.00 | 0.00 | 81 | 1013.5 |
| 20260903022405 | 63 | 354 | 6.0 | 16.0 | 0.00 | 0.00 | 0.00 | 81 | 1013.5 |
| 20260903021405 | 63 | 314 | 5.0 | 10.0 | 0.00 | 0.00 | 0.00 | 82 | 1013.7 |
| 20260903020905 | 63 | 339 | 5.0 | 12.0 | 0.00 | 0.00 | 0.00 | 83 | 1013.8 |
| 20260903015905 | 60 | 351 | 4.0 | 12.0 | 0.00 | 0.00 | 0.00 | 85 | 1013.9 |
| 20260903015405 | 59 | 339 | 7.0 | 13.0 | 0.00 | 0.00 | 0.00 | 84 | 1014.0 |
| 20260903014406 | 60 | 345 | 4.0 | 8.0 | 0.00 | 0.00 | 0.00 | 83 | 1014.0 |
| 20260903013905 | 61 | 338 | 6.0 | 10.0 | 0.00 | 0.00 | 0.00 | 82 | 1014.0 |
| 20260903013405 | 61 | 345 | 5.0 | 10.0 | 0.00 | 0.00 | 0.00 | 82 | 1014.0 |
| 20260903012405 | 61 | 341 | 5.0 | 12.0 | 0.00 | 0.00 | 0.00 | 83 | 1014.1 |
| 20260903011905 | 60 | 352 | 4.0 | 10.0 | 0.00 | 0.00 | 0.00 | 83 | 1014.2 |
| 20260903011405 | 60 | 334 | 6.0 | 13.0 | 0.00 | 0.00 | 0.00 | 83 | 1014.3 |
| 20260903010405 | 60 | 332 | 4.0 | 12.0 | 0.00 | 0.00 | 0.00 | 82 | 1014.5 |
| 20260903005905 | 60 | 330 | 5.0 | 12.0 | 0.00 | 0.00 | 0.00 | 82 | 1014.5 |
| 20260903005406 | 60 | 335 | 4.0 | 10.0 | 0.00 | 0.00 | 0.00 | 83 | 1014.5 |
| 20260903004905 | 60 | 349 | 6.0 | 12.0 | 0.00 | 0.00 | 0.00 | 82 | 1014.6 |
| 20260903003905 | 61 | 315 | 6.0 | 13.0 | 0.00 | 0.00 | 0.00 | 82 | 1014.9 |
| 20260903002905 | 61 | 342 | 7.0 | 17.0 | 0.00 | 0.00 | 0.00 | 82 | 1015.0 |
| 20260903002406 | 61 | 330 | 9.0 | 15.0 | 0.00 | 0.00 | 0.00 | 82 | 1015.0 |
| 20260903001905 | 61 | 350 | 7.0 | 15.0 | 0.00 | 0.00 | 0.00 | 82 | 1015.1 |
| 20260903001405 | 62 | 351 | 6.0 | 16.0 | 0.00 | 0.00 | 0.00 | 82 | 1015.2 |
| 20260903000905 | 62 | 352 | 7.0 | 14.0 | 0.00 | 0.00 | 0.00 | 82 | 1015.3 |
| 20260903000406 | 61 | 341 | 7.0 | 14.0 | 0.00 | 0.00 | 0.00 | 83 | 1015.3 |
| 20260902235905 | 61 | 343 | 9.0 | 15.0 | 0.00 | 0.00 | 0.00 | 83 | 1015.3 |
| 20260902235405 | 60 | 340 | 7.0 | 17.0 | 0.00 | 0.00 | 0.00 | 83 | 1015.3 |
| 20260902234905 | 60 | 341 | 7.0 | 13.0 | 0.00 | 0.00 | 0.00 | 84 | 1015.3 |
| 20260902234405 | 59 | 336 | 7.0 | 17.0 | 0.00 | 0.00 | 0.00 | 84 | 1015.3 |
| 20260902233905 | 60 | 347 | 6.0 | 14.0 | 0.00 | 0.00 | 0.00 | 84 | 1015.4 |
| 20260902233405 | 59 | 337 | 6.0 | 14.0 | 0.00 | 0.00 | 0.00 | 85 | 1015.4 |
| 20260902232905 | 59 | 328 | 6.0 | 15.0 | 0.00 | 0.00 | 0.00 | 85 | 1015.4 |
| 20260902232405 | 59 | 345 | 5.0 | 13.0 | 0.00 | 0.00 | 0.00 | 85 | 1015.5 |
| 20260902231905 | 59 | 323 | 6.0 | 13.0 | 0.00 | 0.00 | 0.00 | 85 | 1015.6 |
| 20260902231406 | 59 | 326 | 5.0 | 14.0 | 0.00 | 0.00 | 0.00 | 85 | 1015.7 |
| 20260902230905 | 59 | 341 | 5.0 | 14.0 | 0.00 | 0.00 | 0.00 | 85 | 1015.7 |
| 20260902230405 | 59 | 350 | 6.0 | 14.0 | 0.00 | 0.00 | 0.00 | 85 | 1015.8 |
| 20260902225405 | 58 | 314 | 7.0 | 15.0 | 0.00 | 0.00 | 0.00 | 85 | 1015.7 |
| 20260902224910 | 59 | 321 | 7.0 | 14.0 | 0.00 | 0.00 | 0.00 | 86 | 1015.6 |
| 20260902224405 | 58 | 337 | 5.0 | 12.0 | 0.00 | 0.00 | 0.00 | 86 | 1015.7 |
| 20260902223905 | 58 | 340 | 5.0 | 12.0 | 0.00 | 0.00 | 0.00 | 86 | 1015.7 |
| 20260902223405 | 58 | 347 | 5.0 | 12.0 | 0.00 | 0.00 | 0.00 | 85 | 1015.7 |
| 20260902222906 | 58 | 326 | 5.0 | 14.0 | 0.00 | 0.00 | 0.00 | 85 | 1015.6 |
| 20260902221905 | 59 | 329 | 6.0 | 13.0 | 0.00 | 0.00 | 0.00 | 85 | 1015.5 |
| 20260902221405 | 59 | 320 | 3.0 | 13.0 | 0.00 | 0.00 | 0.00 | 85 | 1015.6 |
| 20260902220906 | 58 | 336 | 3.0 | 14.0 | 0.00 | 0.00 | 0.00 | 85 | 1015.7 |
| 20260902220405 | 59 | 338 | 6.0 | 12.0 | 0.00 | 0.00 | 0.00 | 85 | 1015.6 |
| 20260902215905 | 59 | 342 | 5.0 | 13.0 | 0.00 | 0.00 | 0.00 | 85 | 1015.7 |
| 20260902215406 | 59 | 352 | 6.0 | 14.0 | 0.00 | 0.00 | 0.00 | 85 | 1015.6 |
| 20260902214906 | 58 | 334 | 6.0 | 13.0 | 0.00 | 0.00 | 0.00 | 85 | 1015.6 |
| 20260902214406 | 58 | 325 | 7.0 | 13.0 | 0.00 | 0.00 | 0.00 | 86 | 1015.6 |